Location: DAV
(33.5613°N, 82.7640°W)
Time: 20:18:16
(UTC-05:00)

Tiangong 2 - Visible Passes

Search period start: 23 January 2018 00:00
Search period end: 02 February 2018 00:00
Orbit: 384 x 390 km, 42.8° (Epoch: 23 January)

Date Brightness Start Highest point End Pass type
(mag) Time Alt. Az. Time Alt. Az. Time Alt. Az.
23 Jan 3.3 06:41:52 11° NW 06:43:36 15° N 06:45:37 10° NE visible
24 Jan 3.7 05:45:53 13° NNE 05:45:53 13° NNE 05:46:41 10° NE visible
25 Jan 3.2 06:22:07 14° NNW 06:23:11 16° N 06:25:19 10° NE visible
26 Jan 4.3 05:26:04 10° NE 05:26:04 10° NE 05:26:10 10° NE visible
26 Jan 2.7 06:58:52 10° NW 07:01:38 26° NNE 07:04:25 10° E visible
27 Jan 3.0 06:02:18 19° N 06:02:41 20° NNE 06:05:08 10° ENE visible
28 Jan 2.0 06:38:33 14° NW 06:41:00 42° NNE 06:44:04 10° E visible
29 Jan 2.9 05:42:34 26° NE 05:42:34 26° NE 05:44:54 10° E visible
30 Jan 1.0 06:18:55 32° NW 06:20:15 82° NNE 06:23:27 10° ESE visible
31 Jan 3.6 05:23:02 23° E 05:23:02 23° E 05:24:29 10° E visible
31 Jan 2.7 06:55:29 10° W 06:58:04 23° SW 07:00:39 10° SSE visible
01 Feb 1.6 05:59:31 46° SSW 05:59:31 46° SSW 06:02:26 10° SE visible
